Flag for Switzerland Weather past 2 weeks in Olten, Solothurn, Switzerland

Now
58 °F

Cool.


Feels Like: 58 °F
Forecast: 46 / 70 °F
Wind: 5 mph from Southwest

Location: Wynau

Current Time: Jul 29, 2015 at 12:38:05 PM

Latest Report: Jul 29, 2015 at 12:00 PM


Visibility: N/A

Pressure: 29.88 "Hg

Humidity: 92%

Dew point: 56 °F

Location of OltenLocation

Historic Weather in Olten — Graph

°F

Olten temperature yesterday

Maximum temperature yesterday: 73 °F (at 6:00 PM)
Minimum temperature yesterday: 58 °F (at 4:00 AM)
Average temperature yesterday: 65 °F

Past Weeks' High & Low Weather Summary

 TemperatureHumidityPressure
High95 °F (Jul 17, 5:00 PM)98% (Jul 23, 6:00 AM)30.18 "Hg (Jul 23, 6:00 AM)
Low53 °F (Jul 26, 6:00 AM)17% (Jul 16, 4:00 PM)29.63 "Hg (Jul 24, 6:00 PM)
Average72 °F65%29.94 "Hg
* Reported Jul 14 11:00 AM — Jul 29 11:00 AM, Olten, Weather by CustomWeather, © 2015

Note: Actual official high and low records may vary slightly from our data, if they occured in-between our weather recording intervals... More about our weather records

Advertising

Olten weather history for previous 24 hours

 ConditionsComfort  
Time TempWeatherWind HumidityBarometerVisibility
11:00 AM
Wed, Jul 29
58 °FCool.1 mph91%29.87 "HgN/A
10:00 AM59 °FCool.1 mph82%29.87 "HgN/A
9:00 AM60 °FCool.1 mph78%29.86 "HgN/A
8:00 AM59 °FCool.2 mph78%29.87 "HgN/A
7:00 AM58 °FCool.3 mph83%29.88 "HgN/A
6:00 AM58 °FCool.2 mph81%29.90 "HgN/A
4:00 AM59 °FCool.1 mph73%29.91 "HgN/A
3:00 AM59 °FCool.2 mph70%29.91 "HgN/A
2:00 AM60 °FCool.5 mph72%29.93 "HgN/A
1:00 AM59 °FCool.1 mph72%29.92 "HgN/A
12:00 AM60 °FCool.2 mph70%29.94 "HgN/A
10:00 PM
Tue, Jul 28
66 °FMild.3 mph49%29.88 "HgN/A
9:00 PM68 °FMild.5 mph44%29.85 "HgN/A
8:00 PM69 °FMild.3 mph43%29.83 "HgN/A
7:00 PM71 °FMild.5 mph42%29.80 "HgN/A
6:00 PM73 °FMild.9 mph40%29.80 "HgN/A
5:00 PM73 °FMild.8 mph40%29.80 "HgN/A
4:00 PM71 °FMild.9 mph42%29.83 "HgN/A
3:00 PM72 °FMild.10 mph44%29.82 "HgN/A
2:00 PM70 °FMild.12 mph45%29.84 "HgN/A
1:00 PM69 °FMild.8 mph46%29.86 "HgN/A
12:00 PM67 °FMild.10 mph49%29.88 "HgN/A
Weather by CustomWeather, © 2015

See weather overviewHow to use our weather pages